OBJECT G

基本信息
目录编号:
59779
目录名称:
OBJECT G
国际标识:
2024-092G
轨道中心:
EARTH
物体状态:
在轨
发射日期:
2024-05-16 UTC
国别:
俄罗斯(独联体) (CIS)
轨道信息
数据来源: 国际轨道数据
星历时间: 2026-07-13T23:20:46+0800
半长轴: 7163.676km
偏心率: 0.0012893
轨道倾角: 98.673°
近地点辐角: 127.715°
升交点赤经: 313.656°
平近点角: 232.521°
近地点: 776.302km
远地点: 794.776km
周期: 100.569分钟
每日圈数: 14.318545
详细信息
发射场:
PKMTR
轨道高度:
LEO
数据来源:
AOE Working Group
参考系:
TEME
时间系统:
UTC
历元类型:
SGP4
2D轨道图
3D轨道图
轨道高度分析图
轨道倾角分析图
轨道综合分析图
查看轨道综合分析图